Location: Breux
(46.3269°N, 3.2993°E)
Time: 21:51:41
(UTC+00:00)

SL-4 R/B - Pass Details

Date: 09 April 2020
Orbit: 428 x 666 km, 51.6° (Epoch: 05 June)

Event Time Altitude Azimuth Distance (km) Brightness Sun altitude
Rises 19:01:08 0° 252° (WSW) 2,402 6.3 -6.5°
Reaches altitude 10° 19:03:15 10° 255° (WSW) 1,526 5.3 -6.9°
Maximum altitude 19:06:37 63° 337° (NNW) 485 2.0 -7.4°
Drops below altitude 10° 19:10:02 10° 60° (ENE) 1,539 3.9 -8.0°
Enters shadow 19:11:35 - 63° (ENE) 2,179 4.7 -8.2°
